Regional Weather Roundup
Issued by NWS Sioux Falls, SD

Home | Current Version | Previous Version | Graphics & Text | Print | Product List | Glossary On
Versions: 1 2 3 4 5 6 7 8 9 10 11 12 13 14 15 16 17 18 19 20 21 22 23 24 25 26 27 28 29 30 31 32 33 34 35 36 37 38 39 40 41 42 43 44 45 46 47 48 49 50
000
ASUS43 KFSD 210210
RWRFSD

WEATHER ROUNDUP FOR SE SOUTH DAKOTA/SW MINNESOTA/NW IOWA
NATIONAL WEATHER SERVICE SIOUX FALLS SD
900 PM CDT MON APR 20 2015

NOTE: "FAIR" INDICATES FEW OR NO CLOUDS BELOW 12,000 FEET WITH NO
SIGNIFICANT WEATHER AND OR OBSTRUCTIONS TO VISIBILITY.


SDZ038>040-050-052>070-210300-
SOUTHEAST SOUTH DAKOTA

CITY           SKY/WX    TMP DP  RH WIND       PRES   REMARKS
BROOKINGS      CLEAR     39  27  60 N10       29.69R
CHAMBERLAIN    MOCLDY    45   8  21 NW10      29.78R
HURON          CLEAR     42  11  28 NW12      29.72R
MADISON        FAIR      41  23  48 N10       29.69R
MITCHELL       CLEAR     47   5  18 NW15      29.74R
SIOUX FALLS    PTCLDY    45  18  34 NW10      29.70R
WINNER         CLOUDY    49  13  23 NW14      29.80R
YANKTON        CLEAR     46   9  21 W13       29.74S
$$

MNZ071-072-080-081-089-090-097-098-210300-
SOUTHWEST MINNESOTA

CITY           SKY/WX    TMP DP  RH WIND       PRES   REMARKS
FAIRMONT       MOCLDY    39  25  56 W14       29.64S
JACKSON        CLOUDY    41  28  60 NW10      29.66R
LUVERNE        CLEAR     45  27  49 NW12      29.69R
MARSHALL       CLOUDY    41  25  52 NW17G25   29.66R
MONTEVIDEO     LGT RAIN  39  34  81 N18G25    29.66R
PIPESTONE      CLEAR     41  27  56 N9G17     29.68R
REDWOOD FALLS  CLOUDY    41  31  67 NW15G25   29.63R
TRACY          CLOUDY    42  27  55 NW21      29.66S
WORTHINGTON    PTCLDY    39  25  56 NW17      29.68R
$$

IAZ001>003-012>014-020>022-031-032-NEZ013-014-SDZ071-210300-
NORTHWEST IOWA

CITY           SKY/WX    TMP DP  RH WIND       PRES   REMARKS
CHEROKEE       CLEAR     44  26  49 NW5       29.70S
DENISON        PTCLDY    46  16  29 NW9       29.71R
ESTHERVILLE    MOCLDY    39  28  64 NW9       29.66S
LE MARS        CLEAR     46  10  23 NW9       29.73R
ORANGE CITY    CLEAR     43  16  33 NW14      29.70R
SHELDON        CLEAR     41  25  52 NW8       29.68R
SIOUX CITY     CLEAR     50   9  19 NW13      29.73R
SPENCER        CLEAR     38  27  64 W8        29.67S
STORM LAKE     CLEAR     43  27  52 NW8       29.70S
$$

ABBREVIATIONS USED IN REMARKS
   TC - TEMPERATURE IN CELSIUS
  WCI - WIND CHILL INDEX
   HX - HEAT INDEX
  VSB - VISIBILITY




USA.gov is the U.S. government's official web portal to all federal, state and local government web resources and services.